Time,TemperatureF,DewpointF,PressureIn,WindDirection,WindDirectionDegrees,WindSpeedMPH,WindSpeedGustMPH,Humidity,HourlyPrecipIn,Conditions,Clouds,dailyrainin,SoftwareType,DateUTC
2013-02-12 08:29:00,27.9,22.2,30.15,ENE,68,0.0,0.0,79,0.00,,---,0.00,VWS V14.01,2013-02-12 14:29:00,
2013-02-12 08:34:00,28.4,22.7,30.18,ENE,68,0.0,0.0,79,0.00,,---,0.00,VWS V14.01,2013-02-12 14:34:00,
2013-02-12 08:39:00,28.9,23.0,30.18,ENE,68,0.0,0.0,78,0.00,,---,0.00,VWS V14.01,2013-02-12 14:39:00,
2013-02-12 08:44:00,29.1,23.1,30.18,ENE,68,0.0,0.0,78,0.00,,---,0.00,VWS V14.01,2013-02-12 14:44:00,
2013-02-12 08:49:00,29.5,23.2,30.15,ENE,68,0.0,0.0,77,0.00,,---,0.00,VWS V14.01,2013-02-12 14:49:00,
2013-02-12 08:54:00,29.8,23.5,30.15,ENE,68,0.0,0.0,77,0.00,,---,0.00,VWS V14.01,2013-02-12 14:54:00,
2013-02-12 08:59:00,30.2,23.9,30.15,ENE,68,0.0,0.0,77,0.00,,---,0.00,VWS V14.01,2013-02-12 14:59:00,
2013-02-12 09:04:00,30.4,23.7,30.15,ENE,68,0.0,0.0,76,0.00,,---,0.00,VWS V14.01,2013-02-12 15:04:00,
2013-02-12 09:09:00,30.7,23.8,30.15,ENE,68,0.0,0.0,75,0.00,,---,0.00,VWS V14.01,2013-02-12 15:09:00,
2013-02-12 09:14:00,31.1,24.1,30.15,NNW,338,0.0,0.0,75,0.00,,---,0.00,VWS V14.01,2013-02-12 15:14:00,
2013-02-12 09:19:00,31.6,24.6,30.15,NNW,338,0.0,0.0,75,0.00,,---,0.00,VWS V14.01,2013-02-12 15:19:00,
2013-02-12 09:24:00,32.2,24.8,30.15,NNW,338,0.0,0.0,74,0.00,,---,0.00,VWS V14.01,2013-02-12 15:24:00,
2013-02-12 09:29:00,32.4,25.0,30.15,NNW,338,0.0,0.0,74,0.00,,---,0.00,VWS V14.01,2013-02-12 15:29:00,
2013-02-12 09:34:00,33.1,25.7,30.15,NNW,338,0.0,0.0,74,0.00,,---,0.00,VWS V14.01,2013-02-12 15:34:00,
2013-02-12 09:39:00,33.4,26.1,30.15,SSW,202,0.0,0.0,74,0.00,,---,0.00,VWS V14.01,2013-02-12 15:39:00,
2013-02-12 09:44:00,33.8,26.4,30.15,South,180,0.0,0.0,74,0.00,,---,0.00,VWS V14.01,2013-02-12 15:44:00,
2013-02-12 09:49:00,34.0,25.9,30.15,South,180,0.0,0.0,72,0.00,,---,0.00,VWS V14.01,2013-02-12 15:49:00,
2013-02-12 09:54:00,34.3,26.3,30.15,South,180,0.0,0.0,72,0.00,,---,0.00,VWS V14.01,2013-02-12 15:54:00,
2013-02-12 09:59:00,34.7,26.6,30.15,SW,225,0.0,0.0,72,0.00,,---,0.00,VWS V14.01,2013-02-12 15:59:00,
2013-02-12 10:04:00,35.1,27.0,30.15,South,180,0.0,0.0,72,0.00,,---,0.00,VWS V14.01,2013-02-12 16:04:00,
2013-02-12 10:09:00,35.4,27.0,30.15,South,180,0.0,0.0,71,0.00,,---,0.00,VWS V14.01,2013-02-12 16:09:00,
2013-02-12 10:14:00,35.4,26.6,30.15,SE,135,0.0,0.0,70,0.00,,---,0.00,VWS V14.01,2013-02-12 16:14:00,
2013-02-12 10:19:00,35.4,26.3,30.15,SSW,202,0.0,0.0,69,0.00,,---,0.00,VWS V14.01,2013-02-12 16:19:00,
2013-02-12 10:24:00,35.6,26.1,30.15,SE,135,0.0,0.0,68,0.00,,---,0.00,VWS V14.01,2013-02-12 16:24:00,
2013-02-12 10:29:00,35.8,25.9,30.15,SE,135,0.0,0.0,67,0.00,,---,0.00,VWS V14.01,2013-02-12 16:29:00,
2013-02-12 10:34:00,36.1,26.6,30.15,SE,135,0.0,0.0,68,0.00,,---,0.00,VWS V14.01,2013-02-12 16:34:00,
2013-02-12 10:39:00,36.3,26.8,30.15,SE,135,0.0,0.0,68,0.00,,---,0.00,VWS V14.01,2013-02-12 16:39:00,
2013-02-12 10:44:00,36.5,27.0,30.15,SSW,202,0.0,0.0,68,0.00,,---,0.00,VWS V14.01,2013-02-12 16:44:00,
2013-02-12 10:49:00,36.9,26.9,30.15,SW,225,0.0,0.0,67,0.00,,---,0.00,VWS V14.01,2013-02-12 16:49:00,
2013-02-12 10:54:00,36.9,26.6,30.15,ESE,112,0.0,0.0,66,0.00,,---,0.00,VWS V14.01,2013-02-12 16:54:00,
2013-02-12 10:59:00,37.0,26.8,30.15,SSE,158,0.0,0.0,66,0.00,,---,0.00,VWS V14.01,2013-02-12 16:59:00,
2013-02-12 11:04:00,37.2,26.9,30.12,West,270,0.0,0.0,66,0.00,,---,0.00,VWS V14.01,2013-02-12 17:04:00,
2013-02-12 11:09:00,37.6,27.3,30.12,South,180,0.0,0.0,66,0.00,,---,0.00,VWS V14.01,2013-02-12 17:09:00,
2013-02-12 11:14:00,38.3,28.0,30.12,SSE,158,0.0,0.0,66,0.00,,---,0.00,VWS V14.01,2013-02-12 17:14:00,
2013-02-12 11:19:00,38.8,28.5,30.12,WSW,248,0.0,0.0,66,0.00,,---,0.00,VWS V14.01,2013-02-12 17:19:00,
2013-02-12 11:24:00,39.2,28.4,30.12,South,180,0.0,0.0,65,0.00,,---,0.00,VWS V14.01,2013-02-12 17:24:00,
2013-02-12 11:29:00,39.6,28.4,30.12,South,180,0.0,0.0,64,0.00,,---,0.00,VWS V14.01,2013-02-12 17:29:00,
2013-02-12 11:34:00,39.7,28.6,30.15,South,180,0.0,0.0,64,0.00,,---,0.00,VWS V14.01,2013-02-12 17:34:00,
2013-02-12 11:39:00,39.7,27.8,30.15,South,180,0.0,0.0,62,0.00,,---,0.00,VWS V14.01,2013-02-12 17:39:00,
2013-02-12 11:44:00,40.1,28.1,30.15,SW,225,0.0,0.0,62,0.00,,---,0.00,VWS V14.01,2013-02-12 17:44:00,
2013-02-12 11:49:00,40.3,28.3,30.12,NW,315,0.0,0.9,62,0.00,,---,0.00,VWS V14.01,2013-02-12 17:49:00,
2013-02-12 11:54:00,40.6,28.6,30.12,South,180,0.0,0.0,62,0.00,,---,0.00,VWS V14.01,2013-02-12 17:54:00,
2013-02-12 11:59:00,41.2,29.2,30.12,South,180,0.0,0.0,62,0.00,,---,0.00,VWS V14.01,2013-02-12 17:59:00,
2013-02-12 12:04:00,41.2,29.2,30.12,ESE,112,0.0,0.0,62,0.00,,---,0.00,VWS V14.01,2013-02-12 18:04:00,
2013-02-12 12:09:00,41.2,29.2,30.12,SSE,158,0.0,0.0,62,0.00,,---,0.00,VWS V14.01,2013-02-12 18:09:00,
2013-02-12 12:14:00,42.4,29.1,30.12,North,0,0.0,0.0,59,0.00,,---,0.00,VWS V14.01,2013-02-12 18:14:00,
2013-02-12 12:19:00,43.2,29.8,30.12,West,270,1.6,1.6,59,0.00,,---,0.00,VWS V14.01,2013-02-12 18:19:00,
2013-02-12 12:24:00,43.0,29.2,30.12,West,270,1.6,2.2,58,0.00,,---,0.00,VWS V14.01,2013-02-12 18:24:00,
2013-02-12 12:29:00,43.3,29.1,30.12,SSE,158,0.0,0.0,57,0.00,,---,0.00,VWS V14.01,2013-02-12 18:29:00,
2013-02-12 12:34:00,43.7,29.5,30.12,South,180,0.0,0.0,57,0.00,,---,0.00,VWS V14.01,2013-02-12 18:34:00,
2013-02-12 12:39:00,44.1,29.8,30.12,West,270,2.0,2.0,57,0.00,,---,0.00,VWS V14.01,2013-02-12 18:39:00,
2013-02-12 12:44:00,44.1,29.4,30.12,West,270,1.1,1.6,56,0.00,,---,0.00,VWS V14.01,2013-02-12 18:44:00,
2013-02-12 12:49:00,44.2,29.1,30.12,NNW,338,0.0,0.0,55,0.00,,---,0.00,VWS V14.01,2013-02-12 18:49:00,
2013-02-12 12:54:00,44.4,29.3,30.12,SW,225,0.0,0.0,55,0.00,,---,0.00,VWS V14.01,2013-02-12 18:54:00,
2013-02-12 12:59:00,44.8,29.2,30.12,South,180,0.0,1.3,54,0.00,,---,0.00,VWS V14.01,2013-02-12 18:59:00,
2013-02-12 18:07:00,39.9,21.8,30.00,SSE,158,0.0,0.0,48,0.00,,---,0.00,VWS V14.01,2013-02-13 00:07:00,
2013-02-12 18:12:00,39.7,21.7,30.00,NW,315,0.0,0.0,48,0.00,,---,0.00,VWS V14.01,2013-02-13 00:12:00,
2013-02-12 18:17:00,39.6,22.0,30.00,NW,315,0.0,0.0,49,0.00,,---,0.00,VWS V14.01,2013-02-13 00:17:00,
2013-02-12 18:22:00,39.4,21.8,30.00,NW,315,0.0,0.0,49,0.00,,---,0.00,VWS V14.01,2013-02-13 00:22:00,
2013-02-12 18:27:00,39.2,21.7,30.00,NW,315,0.0,0.0,49,0.00,,---,0.00,VWS V14.01,2013-02-13 00:27:00,
2013-02-12 18:32:00,39.2,21.7,30.03,NW,315,0.0,0.0,49,0.00,,---,0.00,VWS V14.01,2013-02-13 00:32:00,
2013-02-12 18:37:00,39.0,22.0,30.03,NW,315,0.0,0.0,50,0.00,,---,0.00,VWS V14.01,2013-02-13 00:37:00,
2013-02-12 18:42:00,38.8,21.8,30.03,NW,315,0.0,0.0,50,0.00,,---,0.00,VWS V14.01,2013-02-13 00:42:00,
2013-02-12 18:47:00,38.7,21.6,30.00,NW,315,0.0,0.0,50,0.00,,---,0.00,VWS V14.01,2013-02-13 00:47:00,
2013-02-12 18:52:00,38.5,21.5,30.00,NW,315,0.0,0.0,50,0.00,,---,0.00,VWS V14.01,2013-02-13 00:52:00,
2013-02-12 18:57:00,38.5,21.5,30.00,NW,315,0.0,0.0,50,0.00,,---,0.00,VWS V14.01,2013-02-13 00:57:00,
2013-02-12 19:02:00,38.5,21.9,30.03,NW,315,0.0,0.0,51,0.00,,---,0.00,VWS V14.01,2013-02-13 01:02:00,
2013-02-12 19:07:00,38.3,21.8,30.03,NW,315,0.0,0.0,51,0.00,,---,0.00,VWS V14.01,2013-02-13 01:07:00,
2013-02-12 19:12:00,38.3,21.8,30.03,NW,315,0.0,0.0,51,0.00,,---,0.00,VWS V14.01,2013-02-13 01:12:00,
2013-02-12 19:17:00,37.9,21.4,30.00,NW,315,0.0,0.0,51,0.00,,---,0.00,VWS V14.01,2013-02-13 01:17:00,
2013-02-12 19:22:00,37.8,21.3,30.00,NW,315,0.0,0.0,51,0.00,,---,0.00,VWS V14.01,2013-02-13 01:22:00,
2013-02-12 19:27:00,37.6,21.1,30.00,NW,315,0.0,0.0,51,0.00,,---,0.00,VWS V14.01,2013-02-13 01:27:00,
2013-02-12 19:32:00,37.4,20.9,30.00,NW,315,0.0,0.0,51,0.00,,---,0.00,VWS V14.01,2013-02-13 01:32:00,
2013-02-12 19:37:00,37.0,21.1,30.00,NNW,338,0.0,0.0,52,0.00,,---,0.00,VWS V14.01,2013-02-13 01:37:00,
2013-02-12 19:42:00,36.9,20.9,30.00,NW,315,0.0,0.0,52,0.00,,---,0.00,VWS V14.01,2013-02-13 01:42:00,
2013-02-12 19:47:00,36.7,20.7,30.00,NW,315,0.0,0.0,52,0.00,,---,0.00,VWS V14.01,2013-02-13 01:47:00,
2013-02-12 19:52:00,36.5,21.0,30.00,NNW,338,0.0,0.0,53,0.00,,---,0.00,VWS V14.01,2013-02-13 01:52:00,
2013-02-12 19:57:00,36.1,20.7,30.00,NNW,338,0.0,0.0,53,0.00,,---,0.00,VWS V14.01,2013-02-13 01:57:00,
2013-02-12 20:02:00,35.8,20.8,30.00,NNW,338,0.0,0.0,54,0.00,,---,0.00,VWS V14.01,2013-02-13 02:02:00,
2013-02-12 20:07:00,35.6,20.6,30.00,NNW,338,0.0,0.0,54,0.00,,---,0.00,VWS V14.01,2013-02-13 02:07:00,
2013-02-12 20:12:00,35.2,20.7,30.00,NNW,338,0.0,0.0,55,0.00,,---,0.00,VWS V14.01,2013-02-13 02:12:00,
2013-02-12 20:17:00,34.9,20.8,30.03,NNW,338,0.0,0.0,56,0.00,,---,0.00,VWS V14.01,2013-02-13 02:17:00,
2013-02-12 20:22:00,34.5,20.5,30.03,NNW,338,0.0,0.0,56,0.00,,---,0.00,VWS V14.01,2013-02-13 02:22:00,
2013-02-12 20:27:00,34.3,21.1,30.03,North,0,0.0,0.0,58,0.00,,---,0.00,VWS V14.01,2013-02-13 02:27:00,
2013-02-12 20:32:00,34.0,20.8,30.03,North,0,0.0,0.0,58,0.00,,---,0.00,VWS V14.01,2013-02-13 02:32:00,
2013-02-12 20:37:00,33.6,20.8,30.03,North,0,0.0,0.0,59,0.00,,---,0.00,VWS V14.01,2013-02-13 02:37:00,
2013-02-12 20:42:00,33.4,21.1,30.03,North,0,0.0,0.0,60,0.00,,---,0.00,VWS V14.01,2013-02-13 02:42:00,
2013-02-12 20:47:00,33.1,20.7,30.03,North,0,0.0,0.0,60,0.00,,---,0.00,VWS V14.01,2013-02-13 02:47:00,
2013-02-12 20:52:00,32.9,20.9,30.03,North,0,0.0,0.0,61,0.00,,---,0.00,VWS V14.01,2013-02-13 02:52:00,
2013-02-12 20:57:00,32.5,20.6,30.03,North,0,0.0,0.0,61,0.00,,---,0.00,VWS V14.01,2013-02-13 02:57:00,
2013-02-12 21:02:00,32.4,20.4,30.00,North,0,0.0,0.0,61,0.00,,---,0.00,VWS V14.01,2013-02-13 03:02:00,
2013-02-12 21:07:00,32.0,20.9,30.00,North,0,0.0,0.0,63,0.00,,---,0.00,VWS V14.01,2013-02-13 03:07:00,
2013-02-12 21:12:00,31.6,20.5,30.00,North,0,0.0,0.0,63,0.00,,---,0.00,VWS V14.01,2013-02-13 03:12:00,
2013-02-12 21:17:00,31.3,20.5,30.03,North,0,0.0,0.0,64,0.00,,---,0.00,VWS V14.01,2013-02-13 03:17:00,
2013-02-12 21:22:00,31.1,20.4,30.03,North,0,0.0,0.0,64,0.00,,---,0.00,VWS V14.01,2013-02-13 03:22:00,
2013-02-12 21:27:00,30.9,20.2,30.03,North,0,0.0,0.0,64,0.00,,---,0.00,VWS V14.01,2013-02-13 03:27:00,
2013-02-12 21:32:00,30.7,20.4,30.00,North,0,0.0,0.0,65,0.00,,---,0.00,VWS V14.01,2013-02-13 03:32:00,
2013-02-12 21:37:00,30.4,20.4,30.00,North,0,0.0,0.0,66,0.00,,---,0.00,VWS V14.01,2013-02-13 03:37:00,
2013-02-12 21:42:00,30.2,20.2,30.00,North,0,0.0,0.0,66,0.00,,---,0.00,VWS V14.01,2013-02-13 03:42:00,
2013-02-12 21:47:00,30.0,20.4,30.00,North,0,0.0,0.0,67,0.00,,---,0.00,VWS V14.01,2013-02-13 03:47:00,
2013-02-12 21:52:00,29.8,20.6,30.00,North,0,0.0,0.0,68,0.00,,---,0.00,VWS V14.01,2013-02-13 03:52:00,
2013-02-12 21:57:00,29.7,20.4,30.00,North,0,0.0,0.0,68,0.00,,---,0.00,VWS V14.01,2013-02-13 03:57:00,
2013-02-12 22:02:00,29.5,20.6,30.00,North,0,0.0,0.0,69,0.00,,---,0.00,VWS V14.01,2013-02-13 04:02:00,
2013-02-12 22:07:00,29.3,20.4,30.00,North,0,0.0,0.0,69,0.00,,---,0.00,VWS V14.01,2013-02-13 04:07:00,
2013-02-12 22:12:00,28.9,20.4,30.00,North,0,0.0,0.0,70,0.00,,---,0.00,VWS V14.01,2013-02-13 04:12:00,
2013-02-12 22:17:00,28.9,20.1,30.00,North,0,0.0,0.0,69,0.00,,---,0.00,VWS V14.01,2013-02-13 04:17:00,
2013-02-12 22:22:00,28.6,20.0,30.00,North,0,0.0,0.0,70,0.00,,---,0.00,VWS V14.01,2013-02-13 04:22:00,
2013-02-12 22:27:00,28.4,20.2,30.00,North,0,0.0,0.0,71,0.00,,---,0.00,VWS V14.01,2013-02-13 04:27:00,
2013-02-12 22:32:00,28.4,20.2,30.00,North,0,0.0,0.0,71,0.00,,---,0.00,VWS V14.01,2013-02-13 04:32:00,
2013-02-12 22:37:00,28.2,20.0,30.00,North,0,0.0,0.0,71,0.00,,---,0.00,VWS V14.01,2013-02-13 04:37:00,
2013-02-12 22:42:00,28.0,19.9,30.00,North,0,0.0,0.0,71,0.00,,---,0.00,VWS V14.01,2013-02-13 04:42:00,
2013-02-12 22:47:00,27.9,19.7,30.00,North,0,0.0,0.0,71,0.00,,---,0.00,VWS V14.01,2013-02-13 04:47:00,
2013-02-12 22:52:00,27.9,20.0,30.00,North,0,0.0,0.0,72,0.00,,---,0.00,VWS V14.01,2013-02-13 04:52:00,
2013-02-12 22:57:00,27.7,19.9,30.00,North,0,0.0,0.0,72,0.00,,---,0.00,VWS V14.01,2013-02-13 04:57:00,
2013-02-12 23:00:00,27.7,19.9,30.00,North,0,0.0,0.0,72,0.00,,---,0.00,VWS V14.01,2013-02-13 05:00:00,
2013-02-12 23:05:00,27.5,19.7,30.00,North,0,0.0,0.0,72,0.00,,---,0.00,VWS V14.01,2013-02-13 05:05:00,
2013-02-12 23:10:00,27.3,19.8,30.00,North,0,0.0,0.0,73,0.00,,---,0.00,VWS V14.01,2013-02-13 05:10:00,
2013-02-12 23:15:00,27.0,19.8,30.00,North,0,0.0,0.0,74,0.00,,---,0.00,VWS V14.01,2013-02-13 05:15:00,
2013-02-12 23:20:00,27.0,19.8,30.00,North,0,0.0,0.0,74,0.00,,---,0.00,VWS V14.01,2013-02-13 05:20:00,
2013-02-12 23:25:00,26.8,19.9,30.00,North,0,0.0,0.0,75,0.00,,---,0.00,VWS V14.01,2013-02-13 05:25:00,
2013-02-12 23:30:00,26.6,20.1,30.00,North,0,0.0,0.0,76,0.00,,---,0.00,VWS V14.01,2013-02-13 05:30:00,
2013-02-12 23:35:00,26.4,19.9,30.00,North,0,0.0,0.0,76,0.00,,---,0.00,VWS V14.01,2013-02-13 05:35:00,
2013-02-12 23:40:00,26.2,19.7,30.00,North,0,0.0,0.0,76,0.00,,---,0.00,VWS V14.01,2013-02-13 05:40:00,
2013-02-12 23:45:00,26.2,19.7,30.00,North,0,0.0,0.0,76,0.00,,---,0.00,VWS V14.01,2013-02-13 05:45:00,
2013-02-12 23:50:00,26.1,19.2,30.00,North,0,0.0,0.0,75,0.00,,---,0.00,VWS V14.01,2013-02-13 05:50:00,
2013-02-12 23:55:00,26.1,18.9,30.00,North,0,0.0,0.0,74,0.00,,---,0.00,VWS V14.01,2013-02-13 05:55:00,